XM-3

导读 | 星芒AI

XM-3卫星是一颗由某航天机构研发的多功能地球观测卫星,主要用于气象监测、环境评估和灾害预警。该卫星搭载高分辨率光学传感器和红外成像设备,具备全天候、全天时的观测能力。XM-3运行在太阳同步轨道,轨道高度约800公里,设计寿命为5年。自发射以来,XM-3在提供精准气象数据、支持防灾减灾和生态环境保护等方面发挥了重要作用,提升了相关领域的监测能力和响应效率。

基本信息
目录编号:
28626
目录名称:
XM-3
国际标识:
2005-008A
轨道中心:
EARTH
卫星名称:
XM-3
卫星全名:
--
卫星状态:
在轨 (已飞行7594 天)
发射日期:
2005-03-01 UTC
国别 :
美国 (US)
星等 :
--
轨道信息
数据来源 国际轨道数据 AOE轨道数据
星历时间 2025-12-15T06:28:24+0800
20小时前
查看轨道信息
2025-12-15T03:00:00+0800
23小时前
查看轨道信息
半长轴 42538.966km 42538.994km
偏心率 0.000167 0.0001543
轨道倾角 0.180° 0.180°
近地点辐角 274.808° 274.627°
升交点赤经 81.727° 81.914°
平近点角 168.300° 116.738°
近地点 36153.726km 36154.295km
远地点 36167.936km 36167.423km
周期 1455.258分钟 1455.260分钟
每日圈数 0.989515 0.989514
详细信息
使用方式:
暂无
2D轨道图
3D轨道图
轨道高度分析图
轨道倾角分析图
轨道综合分析图
查看轨道综合分析图